Date String (YYYY-MM-DD hh:mm:ss) UTC,Instrument flags,absolute air pressure of the measurement (hPa),sample flow rate (lpm),inlet stack bypass flow (lpm),air temperature of the measurement (°C),ambient temperature measured by the external sensor (°C),aerosol sample conditioner tube jacket temperature (°C),OPC LED temperature (°C),internal box temperature (°C),relative humidity of the measurement (%),span deviation,mass concentration of particles derived from Lorenz-Mie calculation of OPC scattering (μg/m³),mass concentration of particles derived from Lorenz-Mie calculation of OPC scattering (μg/m³),mass concentration of particles derived from Lorenz-Mie calculation of OPC scattering (μg/m³)
DateTimeUTC,F1_M11,P_M11,Q1_M11,Q2_M11,T1_M11,T2_M11,T3_M11,T4_M11,T5_M11,U1_M11,ZSPAN_M11,X0_M11,X2_M11,X1_M11
2023-08-31 22:00:00,SystemResetWarning,0828.0,5.02,000.00,028.1,025.2,000.0,036.3,029.4,18.2,0000.0,0011.54,0003.74,0003.13
2023-08-31 22:01:00,SystemResetWarning,0828.0,5.01,000.00,028.1,025.5,000.0,036.3,029.4,18.4,0000.0,0011.16,0003.71,0003.11
2023-08-31 22:02:00,SystemResetWarning,0828.0,4.99,000.00,028.1,025.9,000.0,036.3,029.6,18.2,0000.0,0010.29,0003.66,0003.10
2023-08-31 22:03:00,SystemResetWarning,0828.0,5.00,000.00,028.2,026.3,000.0,036.3,029.7,18.2,0000.0,0009.22,0003.60,0003.10
2023-08-31 22:04:00,SystemResetWarning,0828.1,5.00,000.00,028.2,026.7,000.0,036.4,029.9,17.5,0000.0,0009.23,0003.59,0003.08
2023-08-31 22:05:00,SystemResetWarning,0828.1,5.00,000.00,028.3,026.9,000.0,036.4,029.9,17.5,0000.0,0008.84,0003.59,0003.08
2023-08-31 22:06:00,SystemResetWarning,0828.1,4.97,000.00,028.2,025.9,000.0,036.4,029.5,17.2,0000.0,0008.49,0003.57,0003.07
2023-08-31 22:07:00,SystemResetWarning,0828.0,5.01,000.00,028.1,024.8,000.0,036.3,029.3,17.1,0000.0,0008.43,0003.56,0003.09
2023-08-31 22:08:00,SystemResetWarning,0828.0,5.02,000.00,028.0,025.0,000.0,036.2,029.4,17.7,0000.0,0008.43,0003.53,0003.08
2023-08-31 22:09:00,SystemResetWarning,0828.0,4.99,000.00,028.0,025.3,000.0,036.3,029.4,17.4,0000.0,0008.57,0003.52,0003.09
2023-08-31 22:10:00,SystemResetWarning,0828.1,5.00,000.00,028.0,025.8,000.0,036.3,029.5,17.2,0000.0,0008.52,0003.51,0003.10
2023-08-31 22:11:00,SystemResetWarning,0828.1,5.01,000.00,028.1,026.2,000.0,036.3,029.7,17.1,0000.0,0008.98,0003.52,0003.11
2023-08-31 22:12:00,SystemResetWarning,0828.1,5.01,000.00,028.1,026.7,000.0,036.3,029.8,17.4,0000.0,0008.94,0003.54,0003.13
2023-08-31 22:13:00,SystemResetWarning,0828.1,5.00,000.00,028.2,026.9,000.0,036.4,029.9,17.6,0000.0,0008.83,0003.56,0003.14
2023-08-31 22:14:00,SystemResetWarning,0828.0,4.98,000.00,028.2,025.8,000.0,036.3,029.6,17.6,0000.0,0008.29,0003.52,0003.14
2023-08-31 22:15:00,SystemResetWarning,0828.0,5.00,000.00,028.1,024.8,000.0,036.2,029.3,17.5,0000.0,0008.38,0003.52,0003.15
2023-08-31 22:16:00,SystemResetWarning,0828.0,5.01,000.00,028.0,024.9,000.0,036.2,029.3,17.7,0000.0,0008.89,0003.52,0003.16
2023-08-31 22:17:00,SystemResetWarning,0827.8,5.00,000.00,027.9,025.2,000.0,036.2,029.3,17.3,0000.0,0008.78,0003.51,0003.17
2023-08-31 22:18:00,SystemResetWarning,0827.9,4.99,000.00,028.0,025.6,000.0,036.2,029.4,18.7,0000.0,0008.93,0003.56,0003.17
2023-08-31 22:19:00,SystemResetWarning,0827.9,4.99,000.00,028.0,026.1,000.0,036.3,029.6,18.3,0000.0,0008.98,0003.61,0003.16
2023-08-31 22:20:00,SystemResetWarning,0827.9,5.01,000.00,028.1,026.5,000.0,036.3,029.7,17.5,0000.0,0008.74,0003.62,0003.15
2023-08-31 22:21:00,SystemResetWarning,0827.9,5.01,000.00,028.1,026.8,000.0,036.3,029.9,17.2,0000.0,0009.88,0003.62,0003.16
2023-08-31 22:22:00,SystemResetWarning,0827.9,4.99,000.00,028.2,027.1,000.0,036.3,029.9,17.2,0000.0,0009.98,0003.62,0003.16
2023-08-31 22:23:00,SystemResetWarning,0827.8,4.98,000.00,028.2,026.1,000.0,036.3,029.6,17.8,0000.0,0010.17,0003.62,0003.16
2023-08-31 22:24:00,SystemResetWarning,0827.8,5.01,000.00,028.1,024.9,000.0,036.2,029.3,17.9,0000.0,0010.18,0003.60,0003.15
2023-08-31 22:25:00,SystemResetWarning,0827.8,5.01,000.00,028.0,025.0,000.0,036.2,029.3,18.4,0000.0,0009.93,0003.60,0003.14
2023-08-31 22:26:00,SystemResetWarning,0827.8,4.99,000.00,028.0,025.3,000.0,036.2,029.4,18.2,0000.0,0009.53,0003.59,0003.14
2023-08-31 22:27:00,SystemResetWarning,0827.8,5.00,000.00,028.0,025.7,000.0,036.2,029.5,18.0,0000.0,0008.72,0003.57,0003.13
2023-08-31 22:28:00,SystemResetWarning,0827.8,5.01,000.00,028.0,026.1,000.0,036.3,029.6,18.6,0000.0,0008.73,0003.54,0003.11
2023-08-31 22:29:00,SystemResetWarning,0827.8,5.00,000.00,028.1,026.5,000.0,036.3,029.8,17.5,0000.0,0009.40,0003.51,0003.10
2023-08-31 22:30:00,SystemResetWarning,0827.8,4.99,000.00,028.1,026.9,000.0,036.3,029.9,17.1,0000.0,0009.40,0003.48,0003.10
2023-08-31 22:31:00,SystemResetWarning,0827.8,4.99,000.00,028.2,026.7,000.0,036.3,029.8,17.4,0000.0,0009.36,0003.49,0003.10
2023-08-31 22:32:00,SystemResetWarning,0827.8,5.00,000.00,028.1,025.4,000.0,036.3,029.3,17.2,0000.0,0008.78,0003.49,0003.10
2023-08-31 22:33:00,SystemResetWarning,0827.8,5.01,000.00,028.0,024.9,000.0,036.2,029.2,16.8,0000.0,0007.82,0003.49,0003.09
2023-08-31 22:34:00,SystemResetWarning,0827.8,5.01,000.00,028.0,025.2,000.0,036.2,029.3,17.1,0000.0,0007.59,0003.48,0003.08
2023-08-31 22:35:00,SystemResetWarning,0827.8,5.00,000.00,027.9,025.5,000.0,036.2,029.4,17.4,0000.0,0007.49,0003.49,0003.08
2023-08-31 22:36:00,SystemResetWarning,0827.8,4.99,000.00,028.0,026.0,000.0,036.2,029.6,17.2,0000.0,0007.62,0003.49,0003.07
2023-08-31 22:37:00,SystemResetWarning,0827.8,5.00,000.00,028.0,026.4,000.0,036.3,029.7,17.0,0000.0,0007.95,0003.49,0003.06
2023-08-31 22:38:00,SystemResetWarning,0827.8,4.99,000.00,028.1,026.6,000.0,036.3,029.8,18.0,0000.0,0008.35,0003.50,0003.07
2023-08-31 22:39:00,SystemResetWarning,0827.8,4.98,000.00,028.1,025.7,000.0,036.2,029.5,18.0,0000.0,0008.39,0003.53,0003.10
2023-08-31 22:40:00,SystemResetWarning,0827.8,5.01,000.00,028.0,024.6,000.0,036.2,029.2,18.1,0000.0,0008.12,0003.56,0003.10
2023-08-31 22:41:00,SystemResetWarning,0827.8,5.01,000.00,027.9,024.7,000.0,036.1,029.2,18.0,0000.0,0007.72,0003.53,0003.10
2023-08-31 22:42:00,SystemResetWarning,0827.8,5.00,000.00,027.8,025.0,000.0,036.1,029.2,17.5,0000.0,0007.79,0003.50,0003.10
2023-08-31 22:43:00,SystemResetWarning,0827.8,5.00,000.00,027.9,025.5,000.0,036.2,029.3,18.0,0000.0,0008.03,0003.53,0003.10
2023-08-31 22:44:00,SystemResetWarning,0827.8,5.00,000.00,027.9,025.9,000.0,036.2,029.5,17.9,0000.0,0008.04,0003.54,0003.10
2023-08-31 22:45:00,SystemResetWarning,0827.8,5.00,000.00,028.0,026.4,000.0,036.2,029.6,18.1,0000.0,0008.73,0003.55,0003.09
2023-08-31 22:46:00,SystemResetWarning,0827.8,5.00,000.00,028.0,026.7,000.0,036.2,029.8,18.9,0000.0,0008.90,0003.55,0003.10
2023-08-31 22:47:00,SystemResetWarning,0827.8,4.99,000.00,028.1,027.0,000.0,036.3,029.9,18.5,0000.0,0009.07,0003.61,0003.11
2023-08-31 22:48:00,SystemResetWarning,0827.8,4.99,000.00,028.1,026.1,000.0,036.2,029.5,18.0,0000.0,0009.06,0003.61,0003.11
2023-08-31 22:49:00,SystemResetWarning,0827.8,5.01,000.00,028.0,024.8,000.0,036.2,029.1,18.1,0000.0,0008.68,0003.60,0003.11
2023-08-31 22:50:00,SystemResetWarning,0827.8,5.01,000.00,027.9,024.9,000.0,036.1,029.2,18.5,0000.0,0009.36,0003.59,0003.09
2023-08-31 22:51:00,SystemResetWarning,0827.8,5.01,000.00,027.9,025.2,000.0,036.1,029.2,18.4,0000.0,0009.15,0003.55,0003.07
2023-08-31 22:52:00,SystemResetWarning,0827.7,5.00,000.00,027.9,025.6,000.0,036.2,029.4,18.2,0000.0,0009.29,0003.55,0003.07
2023-08-31 22:53:00,SystemResetWarning,0827.8,4.99,000.00,027.9,026.0,000.0,036.2,029.5,18.0,0000.0,0009.12,0003.53,0003.05
2023-08-31 22:54:00,SystemResetWarning,0827.8,5.00,000.00,028.0,026.4,000.0,036.2,029.7,18.7,0000.0,0008.90,0003.51,0003.03
2023-08-31 22:55:00,SystemResetWarning,0827.7,5.00,000.00,028.1,026.7,000.0,036.2,029.8,18.5,0000.0,0008.90,0003.51,0003.03
2023-08-31 22:56:00,SystemResetWarning,0827.7,4.99,000.00,028.0,025.9,000.0,036.2,029.4,18.5,0000.0,0008.24,0003.52,0003.03
2023-08-31 22:57:00,SystemResetWarning,0827.7,5.01,000.00,027.9,024.7,000.0,036.1,029.1,18.3,0000.0,0008.12,0003.51,0003.03
2023-08-31 22:58:00,SystemResetWarning,0827.7,5.01,000.00,027.8,024.7,000.0,036.1,029.1,19.1,0000.0,0007.84,0003.44,0003.02
2023-08-31 22:59:00,SystemResetWarning,0827.7,4.99,000.00,027.8,025.0,000.0,036.1,029.2,18.4,0000.0,0007.60,0003.44,0003.02
